• In Moldova, Republic
  • List of Countries
  • For 7 days
  • Water Temperature
  • Satellite Maps
  • Weather Map
  • Weather Widgets
  • user-avatar
    Login

    Hourly Weather Canberra

    Today, 28 March, Tuesday

    Time Temperature Precipitation Wind Pressure Humidity
    00:00 +19°C° 0 mm 1 mps 707 mmHg 93%
    01:00 +18°C° 0 mm 1 mps 706 mmHg 96%
    02:00 +18°C° 0 mm 1 mps 707 mmHg 96%
    03:00 +16°C° 0 mm 1 mps 707 mmHg 97%
    04:00 +15°C° 0 mm 1 mps 707 mmHg 97%
    05:00 +16°C° 0 mm 1 mps 707 mmHg 96%
    06:00 +16°C° 0 mm 1 mps 707 mmHg 96%
    07:00 +18°C° 0 mm 1 mps 708 mmHg 95%
    08:00 +20°C° 0 mm 1 mps 708 mmHg 84%
    09:00 +22°C° 0 mm 1 mps 708 mmHg 72%
    10:00 +24°C° 0 mm 1 mps 709 mmHg 61%
    11:00 +25°C° 0 mm 2 mps 708 mmHg 51%
    12:00 +27°C° 0 mm 2 mps 708 mmHg 41%
    13:00 +29°C° 0 mm 2 mps 708 mmHg 31%
    14:00 +29°C° 0 mm 2 mps 708 mmHg 29%
    15:00 +28°C° 0 mm 2 mps 708 mmHg 27%
    16:00 +27°C° 0 mm 2 mps 708 mmHg 39%
    17:00 +23°C° 0 mm 2 mps 707 mmHg 48%
    18:00 +20°C° 0 mm 1 mps 707 mmHg 58%
    19:00 +16°C° 0 mm 1 mps 707 mmHg 68%
    20:00 +15°C° 0 mm 1 mps 707 mmHg 72%
    21:00 +14°C° 0 mm 1 mps 707 mmHg 75%
    22:00 +13°C° 0 mm 1 mps 707 mmHg 79%
    23:00 +13°C° 0 mm 1 mps 707 mmHg 81%

    Tomorrow, 29 March, Wednesday

    Time Temperature Precipitation Wind Pressure Humidity
    00:00 +12°C° 0 mm 1 mps 707 mmHg 83%
    01:00 +11°C° 0 mm 1 mps 706 mmHg 85%
    02:00 +11°C° 0 mm 1 mps 706 mmHg 83%
    03:00 +10°C° 0 mm 1 mps 706 mmHg 80%
    04:00 +10°C° 0 mm 1 mps 705 mmHg 78%
    05:00 +10°C° 0 mm 1 mps 705 mmHg 71%
    06:00 +11°C° 0 mm 1 mps 706 mmHg 65%
    07:00 +12°C° 0 mm 1 mps 706 mmHg 58%
    08:00 +16°C° 0 mm 1 mps 706 mmHg 47%
    09:00 +20°C° 0 mm 2 mps 707 mmHg 36%
    10:00 +24°C° 0 mm 2 mps 707 mmHg 25%
    11:00 +26°C° 0 mm 3 mps 707 mmHg 24%
    12:00 +28°C° 0 mm 4 mps 706 mmHg 24%
    13:00 +30°C° 0 mm 5 mps 706 mmHg 24%
    14:00 +29°C° 0 mm 5 mps 705 mmHg 26%
    15:00 +29°C° 0 mm 4 mps 705 mmHg 27%
    16:00 +29°C° 0 mm 4 mps 704 mmHg 29%
    17:00 +26°C° 0 mm 3 mps 704 mmHg 37%
    18:00 +21°C° 0 mm 2 mps 703 mmHg 45%
    19:00 +19°C° 0 mm 1 mps 703 mmHg 53%
    20:00 +19°C° 0 mm 1 mps 703 mmHg 55%
    21:00 +18°C° 0 mm 1 mps 703 mmHg 56%
    22:00 +18°C° 0 mm 1 mps 703 mmHg 57%
    23:00 +16°C° 0 mm 1 mps 703 mmHg 60%

    Day after tomorrow, 30 March, Thursday

    Time Temperature Precipitation Wind Pressure Humidity
    00:00 +16°C° 0 mm 1 mps 703 mmHg 63%
    01:00 +16°C° 0 mm 1 mps 703 mmHg 65%
    02:00 +15°C° 0 mm 1 mps 703 mmHg 65%
    03:00 +14°C° 0 mm 1 mps 703 mmHg 65%
    04:00 +13°C° 0 mm 1 mps 703 mmHg 65%
    05:00 +13°C° 0 mm 1 mps 704 mmHg 62%
    06:00 +14°C° 0 mm 1 mps 704 mmHg 59%
    07:00 +14°C° 0 mm 1 mps 705 mmHg 57%
    08:00 +15°C° 0 mm 1 mps 706 mmHg 58%
    09:00 +16°C° 0 mm 1 mps 707 mmHg 60%
    10:00 +17°C° 0 mm 2 mps 707 mmHg 62%
    11:00 +17°C° 0 mm 2 mps 707 mmHg 62%
    12:00 +18°C° 0 mm 2 mps 707 mmHg 63%
    13:00 +18°C° 0 mm 2 mps 707 mmHg 63%
    14:00 +17°C° 0.4 mm 2 mps 707 mmHg 67%
    15:00 +16°C° 0.4 mm 2 mps 707 mmHg 71%
    16:00 +14°C° 0.4 mm 3 mps 706 mmHg 75%
    17:00 +13°C° 0.2 mm 3 mps 707 mmHg 77%
    18:00 +12°C° 0.2 mm 3 mps 708 mmHg 78%
    19:00 +10°C° 0.2 mm 3 mps 708 mmHg 79%
    20:00 +10°C° 0 mm 3 mps 709 mmHg 79%
    21:00 +10°C° 0 mm 3 mps 709 mmHg 78%
    22:00 +9°C° 0 mm 3 mps 710 mmHg 78%
    23:00 +9°C° 0 mm 3 mps 710 mmHg 78%

    31 March, Friday

    Time Temperature Precipitation Wind Pressure Humidity
    00:00 +8°C° 0 mm 3 mps 710 mmHg 77%
    01:00 +8°C° 0 mm 3 mps 709 mmHg 77%
    02:00 +7°C° 0 mm 2 mps 709 mmHg 78%
    03:00 +7°C° 0 mm 2 mps 709 mmHg 79%
    04:00 +6°C° 0 mm 2 mps 709 mmHg 79%
    05:00 +6°C° 0 mm 2 mps 710 mmHg 79%
    06:00 +6°C° 0 mm 2 mps 710 mmHg 78%
    07:00 +6°C° 0 mm 2 mps 711 mmHg 77%
    08:00 +9°C° 0 mm 2 mps 711 mmHg 67%
    09:00 +13°C° 0 mm 2 mps 711 mmHg 57%
    10:00 +16°C° 0 mm 2 mps 712 mmHg 47%
    11:00 +17°C° 0 mm 2 mps 711 mmHg 42%
    12:00 +19°C° 0 mm 2 mps 711 mmHg 38%
    13:00 +20°C° 0 mm 2 mps 711 mmHg 33%
    14:00 +20°C° 0 mm 2 mps 710 mmHg 35%
    15:00 +20°C° 0 mm 2 mps 710 mmHg 36%
    16:00 +20°C° 0 mm 2 mps 710 mmHg 37%
    17:00 +17°C° 0 mm 2 mps 710 mmHg 51%
    18:00 +14°C° 0 mm 2 mps 710 mmHg 64%
    19:00 +10°C° 0 mm 2 mps 710 mmHg 78%
    20:00 +11°C° 0 mm 1 mps 710 mmHg 83%
    21:00 +10°C° 0 mm 1 mps 710 mmHg 88%
    22:00 +9°C° 0 mm 1 mps 710 mmHg 93%
    23:00 +9°C° 0 mm 1 mps 710 mmHg 95%

    1 April, Saturday

    Time Temperature Precipitation Wind Pressure Humidity
    00:00 +8°C° 0 mm 1 mps 710 mmHg 96%
    01:00 +7°C° 0 mm 0 mps 709 mmHg 97%
    02:00 +6°C° 0 mm 0 mps 709 mmHg 97%
    03:00 +6°C° 0 mm 0 mps 709 mmHg 97%
    04:00 +5°C° 0 mm 0 mps 708 mmHg 97%
    05:00 +6°C° 0 mm 0 mps 709 mmHg 96%
    06:00 +7°C° 0 mm 0 mps 709 mmHg 95%
    07:00 +9°C° 0 mm 1 mps 710 mmHg 93%
    08:00 +12°C° 0 mm 1 mps 711 mmHg 77%
    09:00 +15°C° 0 mm 1 mps 711 mmHg 60%
    10:00 +19°C° 0 mm 1 mps 712 mmHg 44%
    11:00 +21°C° 0 mm 1 mps 711 mmHg 39%
    12:00 +23°C° 0 mm 1 mps 711 mmHg 34%
    13:00 +24°C° 0 mm 1 mps 711 mmHg 29%
    14:00 +24°C° 0 mm 2 mps 711 mmHg 30%
    15:00 +24°C° 0 mm 2 mps 711 mmHg 31%
    16:00 +23°C° 0 mm 2 mps 711 mmHg 32%
    17:00 +19°C° 0 mm 2 mps 711 mmHg 45%
    18:00 +16°C° 0 mm 2 mps 711 mmHg 59%
    19:00 +13°C° 0 mm 2 mps 711 mmHg 72%
    20:00 +12°C° 0 mm 2 mps 712 mmHg 79%
    21:00 +12°C° 0 mm 2 mps 712 mmHg 85%
    22:00 +10°C° 0 mm 2 mps 713 mmHg 92%
    23:00 +10°C° 0 mm 2 mps 713 mmHg 92%

    2 April, Sunday

    Time Temperature Precipitation Wind Pressure Humidity
    00:00 +9°C° 0 mm 2 mps 713 mmHg 92%
    01:00 +9°C° 0 mm 2 mps 713 mmHg 92%
    02:00 +9°C° 0 mm 2 mps 714 mmHg 91%
    03:00 +9°C° 0 mm 2 mps 714 mmHg 89%
    04:00 +8°C° 0 mm 2 mps 714 mmHg 88%
    05:00 +8°C° 0 mm 2 mps 715 mmHg 85%
    06:00 +8°C° 0 mm 2 mps 715 mmHg 82%
    07:00 +8°C° 0 mm 2 mps 716 mmHg 79%
    08:00 +10°C° 0 mm 2 mps 716 mmHg 68%
    09:00 +13°C° 0 mm 2 mps 717 mmHg 57%
    10:00 +16°C° 0 mm 2 mps 717 mmHg 46%
    11:00 +17°C° 0 mm 2 mps 717 mmHg 43%
    12:00 +18°C° 0 mm 2 mps 717 mmHg 40%
    13:00 +20°C° 0 mm 2 mps 717 mmHg 37%
    14:00 +19°C° 0 mm 2 mps 717 mmHg 38%
    15:00 +19°C° 0 mm 2 mps 717 mmHg 39%
    16:00 +19°C° 0 mm 2 mps 717 mmHg 40%
    17:00 +17°C° 0 mm 2 mps 717 mmHg 50%
    18:00 +14°C° 0 mm 3 mps 717 mmHg 60%
    19:00 +12°C° 0 mm 3 mps 717 mmHg 70%
    20:00 +11°C° 0 mm 3 mps 718 mmHg 76%
    21:00 +10°C° 0 mm 2 mps 718 mmHg 82%
    22:00 +9°C° 0 mm 2 mps 718 mmHg 88%
    23:00 +9°C° 0 mm 2 mps 718 mmHg 90%
    Show more